Location: Dal�� Lhota
(48.7500°N, 14.0167°E)
Time: 23:23:03
(UTC+00:00)

Cosmos 1455 Rocket - Pass Details

Date: 24 September 2020
Orbit: 604 x 630 km, 82.5° (Epoch: 25 October)

Event Time Altitude Azimuth Distance (km) Brightness Sun altitude
Exits shadow 19:47:15 39° 1° (N) 937 4.1 -27.4°
Drops below altitude 10° 19:50:02 10° 8° (N) 1,983 5.9 -27.8°
Sets 19:52:16 0° 9° (N) 2,889 6.8 -28.1°
